sat.trackr.live / text

‹ back to catalog

STARLINK-31945

NORAD 59870 · 2024-098N

PAYLOAD ACTIVE UNKNOWN

§ Identity

Operator
Country
US
Launch date
2024-05-24
Launch site
AFETR
Launch vehicle
Mass (kg)
RCS (m²)

Purposes: comms

External: N2YO · Heavens-Above · Gunter

§ Orbital elements

Epoch: 2026-09-21T15:45:16.105824Z

Period
94.27 min
Inclination
42.9997°
Eccentricity
0.0001211
Mean motion
15.27577339 rev/d
Perigee alt
482.2 km
Apogee alt
483.9 km
Semi-major
6,861.2 km
B*
1.4346e-5
RAAN
247.2145°
Arg perigee
282.9360°
Mean anomaly
77.1357°
Rev number
13,186

§ Raw data

STARLINK-319451 59870U 24098N   26264.65643641  .00000133  00000+0  14346-4 0  99952 59870  42.9997 247.2145 0001211 282.9360  77.1357 15.27577339131869

JSON: /api/v1/satellites/59870 · /tle

For live sub-satellite position, see the globe view (requires WebGL).

§ Visibility from observer

Set your observer location to see the next 7 days of passes ≥ 10°. The values pass through the URL so the page stays shareable.

No JS? Fill the form by hand. The geolocation button needs JavaScript.